Home > Time Zones > World Clock > Weather > Norway > Oslo > Past weeks

Flag for Norway Weather past 2 weeks in Oslo, Norway

Now
63 °F

Scattered clouds.


Feels Like: 63 °F
Forecast: 42 / 64 °F
Wind: 2 mph from Southwest

Location: Oslo-Blindern

Current Time: Sep 19, 2014 at 6:13:59 PM

Latest Report: Sep 19, 2014 at 5:00 PM


Visibility: 38 mi

Pressure: 30.03 "Hg

Humidity: 64%

Dew point: 51 °F

Location of OsloLocation

Historic Weather in Oslo — Graph

°F

Oslo temperature yesterday

Maximum temperature yesterday: 62 °F (at 4:00 PM)
Minimum temperature yesterday: 44 °F (at 6:00 AM)
Average temperature yesterday: 52 °F

Past Weeks' High & Low Weather Summary

 TemperatureHumidityPressure
High70 °F (Sep 13, 3:00 PM)98% (Sep 5, 3:00 AM)30.48 "Hg (Sep 5, 3:00 AM)
Low44 °F (Sep 18, 6:00 AM)42% (Sep 14, 3:00 PM)29.76 "Hg (Sep 9, 6:00 AM)
Average58 °F78%30.18 "Hg
* Reported Sep 4 4:00 PM — Sep 19 4:00 PM, Oslo, Weather by CustomWeather, © 2014

Note: Actual official high and low records may vary slightly from our data, if they occured in-between our weather recording intervals... More about our weather records

Advertising

Oslo weather history for previous 24 hours

 ConditionsComfort  
Time TempWeatherWind HumidityBarometerVisibility
4:00 PM
Sep 19
65 °FMild.2 mph58%30.04 "HgN/A
3:00 PM66 °FMild.2 mph50%30.06 "HgN/A
2:00 PM65 °FMild.2 mph58%30.07 "HgN/A
1:00 PM64 °FMild.2 mph62%30.09 "HgN/A
12:00 PM63 °FMild.1 mph66%30.09 "HgN/A
11:00 AM58 °FScattered clouds.1 mph73%30.11 "Hg47 mi
10:00 AM56 °FCool.1 mph80%30.11 "HgN/A
9:00 AM51 °FCool.No wind88%30.12 "HgN/A
8:00 AM47 °FCool.1 mph93%30.12 "HgN/A
7:00 AM46 °FCool.2 mph93%30.11 "HgN/A
6:00 AM46 °FCool.2 mph94%30.12 "HgN/A
5:00 AM46 °FPassing clouds.1 mph94%30.13 "Hg37 mi
4:00 AM46 °FCool.2 mph96%30.13 "HgN/A
3:00 AM47 °FCool.3 mph92%30.14 "HgN/A
2:00 AM48 °FClear.3 mph91%30.14 "Hg37 mi
1:00 AM49 °FCool.3 mph93%30.15 "HgN/A
11:00 PM
Sep 18
50 °FPassing clouds.2 mph91%30.16 "Hg31 mi
10:00 PM52 °FCool.3 mph88%30.16 "HgN/A
9:00 PM53 °FCool.2 mph85%30.16 "HgN/A
8:00 PM54 °FCool.2 mph83%30.16 "HgN/A
Weather by CustomWeather, © 2014

See weather overviewHow to use our weather pages